• In Deutschland
  • Länderverzeichnis
  • Für 7 Tage
  • Wassertemperatur
  • Satellitenkarten
  • Wetterkarte
  • Widgets
  • user-avatar
    Anmelden

    Stündliche Wetter Bad Feilnbach

    Heute, 25 Juni, Montag

    Zeit Temperatur Niederschläge Wind Luftdruck Luftfeuchtigkeit
    00:00 +13°C° 0,5 mm 1 m/S 714 mmHg 95%
    01:00 +13°C° 0 mm 1 m/S 714 mmHg 95%
    02:00 +13°C° 0,6 mm 1 m/S 714 mmHg 96%
    03:00 +12°C° 0,6 mm 1 m/S 714 mmHg 96%
    04:00 +12°C° 0,6 mm 1 m/S 714 mmHg 97%
    05:00 +12°C° 0,8 mm 1 m/S 714 mmHg 97%
    06:00 +12°C° 0,8 mm 1 m/S 714 mmHg 97%
    07:00 +12°C° 0 mm 1 m/S 715 mmHg 96%
    08:00 +13°C° 0,5 mm 1 m/S 715 mmHg 93%
    09:00 +14°C° 0,5 mm 1 m/S 715 mmHg 91%
    10:00 +14°C° 0,5 mm 1 m/S 715 mmHg 89%
    11:00 +16°C° 0,3 mm 1 m/S 715 mmHg 81%
    12:00 +19°C° 0,3 mm 1 m/S 715 mmHg 74%
    13:00 +20°C° 0,3 mm 1 m/S 716 mmHg 67%
    14:00 +20°C° 0,2 mm 1 m/S 716 mmHg 66%
    15:00 +20°C° 0,2 mm 2 m/S 715 mmHg 64%
    16:00 +20°C° 0,2 mm 2 m/S 715 mmHg 63%
    17:00 +20°C° 0,2 mm 1 m/S 715 mmHg 70%
    18:00 +19°C° 0,2 mm 1 m/S 715 mmHg 76%
    19:00 +18°C° 0,2 mm 1 m/S 716 mmHg 83%
    20:00 +15°C° 0,1 mm 1 m/S 716 mmHg 86%
    21:00 +14°C° 0,1 mm 1 m/S 716 mmHg 89%
    22:00 +13°C° 0,1 mm 1 m/S 716 mmHg 93%
    23:00 +12°C° 0 mm 1 m/S 717 mmHg 93%

    Morgen, 26 Juni, Dienstag

    Zeit Temperatur Niederschläge Wind Luftdruck Luftfeuchtigkeit
    00:00 +12°C° 0 mm 1 m/S 717 mmHg 94%
    01:00 +12°C° 0 mm 1 m/S 717 mmHg 94%
    02:00 +11°C° 0 mm 1 m/S 717 mmHg 95%
    03:00 +11°C° 0 mm 1 m/S 716 mmHg 95%
    04:00 +11°C° 0 mm 1 m/S 716 mmHg 95%
    05:00 +12°C° 0 mm 1 m/S 716 mmHg 91%
    06:00 +14°C° 0 mm 1 m/S 716 mmHg 88%
    07:00 +15°C° 0 mm 1 m/S 716 mmHg 84%
    08:00 +18°C° 0 mm 1 m/S 716 mmHg 74%
    09:00 +20°C° 0 mm 1 m/S 716 mmHg 65%
    10:00 +21°C° 0 mm 1 m/S 716 mmHg 55%
    11:00 +21°C° 0 mm 2 m/S 716 mmHg 53%
    12:00 +23°C° 0 mm 2 m/S 716 mmHg 51%
    13:00 +23°C° 0 mm 2 m/S 716 mmHg 49%
    14:00 +23°C° 0 mm 2 m/S 716 mmHg 52%
    15:00 +23°C° 0 mm 2 m/S 716 mmHg 55%
    16:00 +23°C° 0 mm 2 m/S 715 mmHg 58%
    17:00 +20°C° 0,2 mm 2 m/S 716 mmHg 67%
    18:00 +19°C° 0,2 mm 2 m/S 716 mmHg 75%
    19:00 +19°C° 0,2 mm 1 m/S 716 mmHg 84%
    20:00 +18°C° 0,2 mm 1 m/S 716 mmHg 87%
    21:00 +15°C° 0,2 mm 1 m/S 716 mmHg 90%
    22:00 +14°C° 0,2 mm 1 m/S 717 mmHg 94%
    23:00 +14°C° 0,1 mm 1 m/S 716 mmHg 94%

    übermorgen, 27 Juni, Mittwoch

    Zeit Temperatur Niederschläge Wind Luftdruck Luftfeuchtigkeit
    00:00 +13°C° 0,1 mm 1 m/S 716 mmHg 94%
    01:00 +12°C° 0,1 mm 0 m/S 716 mmHg 95%
    02:00 +12°C° 0 mm 1 m/S 716 mmHg 95%
    03:00 +12°C° 0 mm 1 m/S 716 mmHg 95%
    04:00 +12°C° 0 mm 1 m/S 715 mmHg 95%
    05:00 +13°C° 0 mm 1 m/S 715 mmHg 93%
    06:00 +14°C° 0 mm 1 m/S 715 mmHg 91%
    07:00 +15°C° 0 mm 1 m/S 715 mmHg 88%
    08:00 +16°C° 0,4 mm 1 m/S 715 mmHg 84%
    09:00 +17°C° 0,4 mm 2 m/S 715 mmHg 80%
    10:00 +18°C° 0,4 mm 2 m/S 715 mmHg 76%
    11:00 +19°C° 0,4 mm 2 m/S 715 mmHg 73%
    12:00 +20°C° 0,4 mm 2 m/S 715 mmHg 69%
    13:00 +20°C° 0,4 mm 2 m/S 715 mmHg 65%
    14:00 +20°C° 0,4 mm 2 m/S 715 mmHg 66%
    15:00 +20°C° 0,4 mm 2 m/S 715 mmHg 66%
    16:00 +20°C° 0,4 mm 2 m/S 714 mmHg 66%
    17:00 +19°C° 0,2 mm 2 m/S 715 mmHg 71%
    18:00 +18°C° 0,2 mm 2 m/S 715 mmHg 77%
    19:00 +18°C° 0,2 mm 1 m/S 715 mmHg 82%
    20:00 +15°C° 0 mm 1 m/S 715 mmHg 86%
    21:00 +14°C° 0 mm 1 m/S 715 mmHg 90%
    22:00 +12°C° 0 mm 1 m/S 715 mmHg 94%
    23:00 +12°C° 0 mm 1 m/S 715 mmHg 94%

    28 Juni, Donnerstag

    Zeit Temperatur Niederschläge Wind Luftdruck Luftfeuchtigkeit
    00:00 +11°C° 0 mm 1 m/S 715 mmHg 94%
    01:00 +11°C° 0 mm 1 m/S 715 mmHg 94%
    02:00 +11°C° 0 mm 1 m/S 714 mmHg 94%
    03:00 +11°C° 0 mm 1 m/S 714 mmHg 94%
    04:00 +10°C° 0 mm 1 m/S 714 mmHg 94%
    05:00 +11°C° 0,2 mm 1 m/S 714 mmHg 92%
    06:00 +13°C° 0,2 mm 1 m/S 713 mmHg 90%
    07:00 +14°C° 0,2 mm 1 m/S 713 mmHg 89%
    08:00 +14°C° 0,5 mm 1 m/S 713 mmHg 88%
    09:00 +15°C° 0,5 mm 1 m/S 712 mmHg 88%
    10:00 +16°C° 0,5 mm 1 m/S 712 mmHg 88%
    11:00 +16°C° 1,6 mm 1 m/S 712 mmHg 90%
    12:00 +16°C° 1,6 mm 2 m/S 712 mmHg 92%
    13:00 +16°C° 1,6 mm 2 m/S 711 mmHg 94%
    14:00 +16°C° 2,4 mm 2 m/S 711 mmHg 95%
    15:00 +15°C° 2,4 mm 2 m/S 711 mmHg 95%
    16:00 +15°C° 2,4 mm 2 m/S 711 mmHg 96%
    17:00 +15°C° 1 mm 2 m/S 711 mmHg 96%
    18:00 +15°C° 1 mm 2 m/S 711 mmHg 96%
    19:00 +15°C° 1 mm 1 m/S 711 mmHg 96%
    20:00 +15°C° 0,4 mm 1 m/S 711 mmHg 96%
    21:00 +15°C° 0,4 mm 2 m/S 711 mmHg 96%
    22:00 +14°C° 0,4 mm 2 m/S 711 mmHg 96%
    23:00 +14°C° 0,2 mm 1 m/S 711 mmHg 96%

    29 Juni, Freitag

    Zeit Temperatur Niederschläge Wind Luftdruck Luftfeuchtigkeit
    00:00 +14°C° 0,2 mm 1 m/S 711 mmHg 95%
    01:00 +14°C° 0,2 mm 1 m/S 711 mmHg 95%
    02:00 +14°C° 0 mm 1 m/S 711 mmHg 95%
    03:00 +14°C° 0 mm 1 m/S 711 mmHg 95%
    04:00 +14°C° 0 mm 1 m/S 711 mmHg 95%
    05:00 +15°C° 0 mm 1 m/S 711 mmHg 94%
    06:00 +15°C° 0 mm 0 m/S 711 mmHg 92%
    07:00 +16°C° 0 mm 0 m/S 711 mmHg 91%
    08:00 +18°C° 0 mm 0 m/S 711 mmHg 85%
    09:00 +21°C° 0 mm 1 m/S 712 mmHg 80%
    10:00 +23°C° 0 mm 1 m/S 712 mmHg 74%
    11:00 +23°C° 0,1 mm 1 m/S 712 mmHg 72%
    12:00 +24°C° 0,1 mm 2 m/S 712 mmHg 69%
    13:00 +25°C° 0,1 mm 2 m/S 712 mmHg 67%
    14:00 +25°C° 0,2 mm 2 m/S 711 mmHg 67%
    15:00 +25°C° 0,2 mm 2 m/S 711 mmHg 68%
    16:00 +26°C° 0,2 mm 2 m/S 711 mmHg 68%
    17:00 +25°C° 0,3 mm 2 m/S 711 mmHg 76%
    18:00 +24°C° 0,3 mm 2 m/S 711 mmHg 83%
    19:00 +23°C° 0,3 mm 1 m/S 711 mmHg 91%
    20:00 +21°C° 0,1 mm 1 m/S 712 mmHg 93%
    21:00 +20°C° 0,1 mm 1 m/S 712 mmHg 95%
    22:00 +19°C° 0,1 mm 1 m/S 712 mmHg 97%
    23:00 +18°C° 0 mm 1 m/S 712 mmHg 97%

    30 Juni, Samstag

    Zeit Temperatur Niederschläge Wind Luftdruck Luftfeuchtigkeit
    00:00 +18°C° 0 mm 1 m/S 712 mmHg 97%
    01:00 +16°C° 0 mm 1 m/S 712 mmHg 96%
    02:00 +16°C° 0 mm 1 m/S 712 mmHg 96%
    03:00 +16°C° 0 mm 1 m/S 712 mmHg 96%
    04:00 +16°C° 0 mm 1 m/S 712 mmHg 96%
    05:00 +18°C° 0 mm 1 m/S 713 mmHg 93%
    06:00 +20°C° 0 mm 1 m/S 713 mmHg 89%
    07:00 +21°C° 0 mm 1 m/S 713 mmHg 86%
    08:00 +23°C° 0 mm 1 m/S 713 mmHg 79%
    09:00 +25°C° 0 mm 2 m/S 714 mmHg 71%
    10:00 +27°C° 0 mm 2 m/S 714 mmHg 63%
    11:00 +28°C° 0 mm 3 m/S 714 mmHg 61%
    12:00 +29°C° 0 mm 3 m/S 714 mmHg 58%
    13:00 +30°C° 0 mm 3 m/S 714 mmHg 56%
    14:00 +30°C° 0,1 mm 3 m/S 714 mmHg 58%
    15:00 +30°C° 0,1 mm 3 m/S 713 mmHg 60%
    16:00 +30°C° 0,1 mm 3 m/S 713 mmHg 62%
    17:00 +28°C° 0,5 mm 3 m/S 713 mmHg 69%
    18:00 +27°C° 0,5 mm 2 m/S 713 mmHg 77%
    19:00 +26°C° 0,5 mm 2 m/S 713 mmHg 84%
    20:00 +24°C° 0,4 mm 2 m/S 714 mmHg 87%
    21:00 +23°C° 0,4 mm 2 m/S 714 mmHg 90%
    22:00 +21°C° 0,4 mm 2 m/S 715 mmHg 93%
    23:00 +20°C° 0,1 mm 2 m/S 715 mmHg 92%
    Mehr zeigen